Location: Rancho Del Sol Observatory
(38.7214°N, 120.6350°W)
Time: 09:11:39
(UTC-08:00)

Tiros 1 despin weight - All Passes

Search period start: 20 January 2020 00:00
Search period end: 30 January 2020 00:00
Orbit: 593 x 643 km, 48.2° (Epoch: 20 January)

Date Brightness Start Highest point End Pass type
(mag) Time Alt. Az. Time Alt. Az. Time Alt. Az.
20 Jan - 11:43:52 10° SSW 11:47:40 27° SE 11:51:31 10° ENE daylight
20 Jan - 13:24:29 10° WSW 13:28:59 61° NNW 13:33:35 10° NE daylight
20 Jan - 15:07:17 10° WNW 15:11:12 27° N 15:15:11 10° NE daylight
20 Jan - 16:49:43 10° NW 16:53:47 29° NNE 16:57:53 10° ENE daylight
20 Jan - 18:31:13 10° NW 18:35:54 74° NNE 18:40:35 10° ESE visible
20 Jan - 20:13:31 10° W 20:17:08 22° SW 20:20:44 10° S visible
21 Jan - 11:59:37 10° SW 12:04:01 53° SE 12:08:29 10° ENE daylight
21 Jan - 13:41:25 10° W 13:45:42 40° NNW 13:50:05 10° NE daylight
21 Jan - 15:24:20 10° WNW 15:28:10 25° N 15:32:01 10° NE daylight
21 Jan - 17:06:19 10° NW 17:10:39 37° NNE 17:15:01 10° E daylight
21 Jan - 18:47:49 10° WNW 18:52:27 62° SW 18:57:04 10° SE visible
21 Jan - 20:32:21 10° WSW 20:33:19 11° SW 20:34:17 10° SW visible
22 Jan - 10:36:22 10° S 10:39:25 18° SE 10:42:30 10° E daylight
22 Jan - 12:15:59 10° WSW 12:20:30 84° NNW 12:25:07 10° ENE daylight
22 Jan - 13:58:31 10° WNW 14:02:33 30° NNW 14:06:38 10° NE daylight
22 Jan - 15:41:13 10° NW 15:45:07 26° N 15:49:04 10° ENE daylight
22 Jan - 17:22:49 10° NW 17:27:24 55° NNE 17:32:00 10° ESE daylight
22 Jan - 19:04:40 10° WNW 19:08:50 32° SW 19:13:00 10° SSE visible
23 Jan - 10:51:35 10° SSW 10:55:41 36° SE 10:59:51 10° ENE daylight
23 Jan - 12:32:45 10° WSW 12:37:09 50° NNW 12:41:39 10° NE daylight
23 Jan - 14:15:39 10° WNW 14:19:29 25° N 14:23:22 10° NE daylight
23 Jan - 15:57:53 10° NW 16:02:02 31° NNE 16:06:12 10° ENE daylight
23 Jan - 17:39:20 10° WNW 17:44:01 88° SW 17:48:43 10° SE visible
23 Jan - 19:22:09 10° W 19:25:05 17° SW 19:28:02 10° S visible
24 Jan - 09:29:42 10° SSE 09:31:13 12° SE 09:32:44 10° ESE daylight
24 Jan - 11:07:38 10° SW 11:12:05 70° SE 11:16:39 10° ENE daylight
24 Jan - 12:49:47 10° W 12:53:56 34° NNW 12:58:09 10° NE daylight
24 Jan - 14:32:38 10° NW 14:36:27 25° N 14:40:17 10° ENE daylight
24 Jan - 16:14:24 10° NW 16:18:51 43° NNE 16:23:19 10° E daylight
24 Jan - 17:56:01 10° WNW 18:00:30 47° SW 18:04:59 10° SE visible
25 Jan - 09:43:49 10° S 09:47:24 24° SE 09:51:02 10° E daylight
25 Jan - 11:24:11 10° WSW 11:28:39 66° NNW 11:33:13 10° NE daylight
25 Jan - 13:06:55 10° WNW 13:10:49 27° N 13:14:47 10° NE daylight
25 Jan - 14:49:25 10° NW 14:53:23 28° N 14:57:24 10° ENE daylight
25 Jan - 16:30:54 10° NW 16:35:33 68° NNE 16:40:13 10° ESE daylight
25 Jan - 18:13:03 10° W 18:16:50 25° SW 18:20:37 10° S visible
26 Jan - 09:59:28 10° SW 10:03:43 47° SE 10:08:05 10° ENE daylight
26 Jan - 11:41:04 10° W 11:45:21 42° NNW 11:49:43 10° NE daylight
26 Jan - 13:23:59 10° WNW 13:27:46 25° N 13:31:35 10° NE daylight
26 Jan - 15:06:01 10° NW 15:10:16 35° NNE 15:14:33 10° E daylight
26 Jan - 16:47:29 10° WNW 16:52:06 69° SW 16:56:45 10° SE daylight
26 Jan - 18:31:15 10° WSW 18:33:02 12° SW 18:34:50 10° SSW visible
27 Jan - 08:36:29 10° S 08:39:11 16° SE 08:41:53 10° E daylight
27 Jan - 10:15:44 10° SW 10:20:12 89° SSE 10:24:46 10° ENE daylight
27 Jan - 11:58:10 10° WNW 12:02:11 30° NNW 12:06:15 10° NE daylight
27 Jan - 13:40:54 10° NW 13:44:43 25° N 13:48:36 10° ENE daylight
27 Jan - 15:22:31 10° NW 15:27:02 51° NNE 15:31:35 10° ESE daylight
27 Jan - 17:04:17 10° WNW 17:08:31 36° SW 17:12:47 10° SSE daylight
28 Jan - 08:51:29 10° SSW 08:55:25 32° SE 08:59:25 10° ENE daylight
28 Jan - 10:32:26 10° WSW 10:36:49 53° NNW 10:41:17 10° NE daylight
28 Jan - 12:15:18 10° WNW 12:19:05 25° N 12:22:56 10° NE daylight
28 Jan - 13:57:35 10° NW 14:01:38 30° NNE 14:05:44 10° ENE daylight
28 Jan - 15:39:02 10° WNW 15:43:40 85° NNE 15:48:21 10° ESE daylight
28 Jan - 17:21:36 10° W 17:24:48 18° SW 17:28:00 10° S daylight
29 Jan - 09:07:25 10° SW 09:11:48 63° SE 09:16:16 10° ENE daylight
29 Jan - 10:49:26 10° W 10:53:35 36° NNW 10:57:47 10° NE daylight
29 Jan - 12:32:18 10° NW 12:36:03 24° N 12:39:50 10° ENE daylight
29 Jan - 14:14:08 10° NW 14:18:28 40° NNE 14:22:51 10° E daylight
29 Jan - 15:55:40 10° WNW 16:00:10 52° SW 16:04:42 10° SE daylight
